Regional Weather Roundup
Issued by NWS

Home | Current Version | Previous Version | Text Only | Print | Product List | Glossary On
Versions: 1 2 3 4 5 6 7 8 9 10 11 12 13 14 15 16 17 18 19 20 21 22 23 24 25 26 27 28 29 30 31 32 33 34 35 36 37 38 39 40 41 42 43 44 45 46 47 48 49 50
000
ASUS43 KLMK 211402
RWRKY
KENTUCKY REGIONAL WEATHER ROUNDUP
NATIONAL WEATHER SERVICE LOUISVILLE KY
900 AM EST TUE FEB 21 2017

NOTE "FAIR" INDICATES FEW OR NO CLOUDS BELOW 12,000 FEET
WITH NO SIGNIFICANT WEATHER AND/OR OBSTRUCTIONS TO VISIBILITY.

KYZ001>023-026-027-061>063-070>075-211500-
WESTERN AND SOUTH CENTRAL KENTUCKY

CITY           SKY/WX    TMP DP  RH WIND       PRES   REMARKS
PADUCAH        CLOUDY    58  49  72 NE5       29.93S
HENDERSON      CLOUDY    55  46  71 CALM      29.97R
OWENSBORO      PTSUNNY   59  48  67 SE7       29.99R
HOPKINSVILLE   MOSUNNY   60  48  65 SE6       29.96S
BOWLING GREEN  MOSUNNY   61  47  59 SE3       30.01R
GLASGOW        NOT AVBL
$$

KYZ024-025-028>034-038-045-046-053-211500-
NORTH CENTRAL KENTUCKY

CITY           SKY/WX    TMP DP  RH WIND       PRES   REMARKS
LOUISVILLE/SDF CLOUDY    62  44  51 CALM      30.02R
LOUISVILLE/LOU PTSUNNY   62  46  55 CALM      30.02S
FORT KNOX      PTSUNNY   59  46  61 SE8       30.00S
$$

KYZ035>037-039>044-047>052-055>060-089>105-211500-
NORTHEAST KENTUCKY

CITY           SKY/WX    TMP DP  RH WIND       PRES   REMARKS
LEXINGTON      MOSUNNY   58  42  55 S8        30.05S
COVINGTON      CLOUDY    55  45  68 S7        30.03S
FRANKFORT      MOSUNNY   57  44  62 SE5       30.03S
$$

KYZ054-064>069-076>088-106>120-211500-
SOUTHEAST KENTUCKY

CITY           SKY/WX    TMP DP  RH WIND       PRES   REMARKS
JACKSON        MOSUNNY   59  38  45 CALM      30.08R
LONDON         MOSUNNY   56  38  50 CALM      30.07S
SOMERSET       MOSUNNY   50  43  76 CALM      30.08R
MIDDLESBORO    MOSUNNY   46  44  91 CALM      30.10F
MONTICELLO     PTSUNNY   60  43  53 N8        30.07R
$$




USA.gov is the U.S. government's official web portal to all federal, state and local government web resources and services.